| time (UTC) | temp F | wind direction | speed MPH | gust MPH | rain 1hr in | rain 24hr in | rain mn in | humidity % | barometer mb |
| 20260509223017 | 67 | 335 | 1.0 | 3.0 | 0.00 | 0.00 | 0.00 | 65 | 993.0 |
| 20260509221517 | 67 | 349 | 1.0 | 3.0 | 0.00 | 0.00 | 0.00 | 61 | 993.0 |
| 20260509220037 | 67 | 350 | 2.0 | 5.0 | 0.00 | 0.00 | 0.00 | 61 | 993.0 |
| 20260509214517 | 68 | 359 | 2.0 | 7.0 | 0.00 | 0.00 | 0.00 | 60 | 993.0 |
| 20260509213037 | 69 | 352 | 2.0 | 5.0 | 0.00 | 0.00 | 0.00 | 56 | 993.0 |
| 20260509211517 | 70 | 328 | 1.0 | 5.0 | 0.00 | 0.00 | 0.00 | 53 | 993.0 |
| 20260509210017 | 69 | 34 | 1.0 | 3.0 | 0.00 | 0.00 | 0.00 | 52 | 993.1 |
| 20260509204517 | 69 | 8 | 0.0 | 2.0 | 0.00 | 0.00 | 0.00 | 53 | 993.0 |
| 20260509203017 | 70 | 114 | 0.0 | 3.0 | 0.00 | 0.00 | 0.00 | 51 | 993.0 |
| 20260509201518 | 71 | 342 | 1.0 | 5.0 | 0.00 | 0.00 | 0.00 | 49 | 993.0 |
| 20260509200021 | 72 | 21 | 1.0 | 5.0 | 0.00 | 0.00 | 0.00 | 47 | 993.1 |
| 20260509194520 | 70 | 44 | 1.0 | 5.0 | 0.00 | 0.00 | 0.00 | 49 | 993.2 |
| 20260509193019 | 70 | 50 | 2.0 | 8.0 | 0.00 | 0.00 | 0.00 | 48 | 993.3 |
| 20260509191518 | 70 | 54 | 2.0 | 6.0 | 0.00 | 0.00 | 0.00 | 48 | 993.4 |
| 20260509190036 | 70 | 97 | 2.0 | 7.0 | 0.00 | 0.00 | 0.00 | 48 | 993.5 |
| 20260509184536 | 68 | 60 | 2.0 | 5.0 | 0.00 | 0.00 | 0.00 | 50 | 993.8 |
| 20260509183016 | 67 | 114 | 2.0 | 4.0 | 0.00 | 0.00 | 0.00 | 52 | 993.9 |
| 20260509181516 | 66 | 34 | 1.0 | 4.0 | 0.00 | 0.00 | 0.00 | 53 | 994.3 |
| 20260509180037 | 65 | 63 | 1.0 | 5.0 | 0.00 | 0.00 | 0.00 | 54 | 994.7 |
| 20260509174537 | 64 | 49 | 1.0 | 4.0 | 0.00 | 0.00 | 0.00 | 56 | 994.9 |
| 20260509173017 | 64 | 68 | 1.0 | 3.0 | 0.00 | 0.00 | 0.00 | 56 | 995.3 |
| 20260509171537 | 64 | 65 | 1.0 | 3.0 | 0.00 | 0.00 | 0.00 | 53 | 995.2 |
| 20260509170057 | 64 | 45 | 2.0 | 4.0 | 0.00 | 0.00 | 0.00 | 54 | 995.0 |
| 20260509164517 | 64 | 36 | 1.0 | 4.0 | 0.00 | 0.00 | 0.00 | 54 | 995.0 |
| 20260509163037 | 64 | 50 | 1.0 | 4.0 | 0.00 | 0.00 | 0.00 | 53 | 995.2 |
| 20260509161538 | 64 | 34 | 1.0 | 3.0 | 0.00 | 0.00 | 0.00 | 53 | 995.3 |
| 20260509160038 | 64 | 30 | 1.0 | 4.0 | 0.00 | 0.00 | 0.00 | 54 | 995.2 |
| 20260509154517 | 64 | 44 | 1.0 | 4.0 | 0.00 | 0.00 | 0.00 | 52 | 995.2 |
| 20260509153017 | 65 | 45 | 1.0 | 3.0 | 0.00 | 0.00 | 0.00 | 52 | 995.4 |
| 20260509151517 | 64 | 44 | 1.0 | 2.0 | 0.00 | 0.00 | 0.00 | 58 | 995.5 |
| 20260509150018 | 62 | 61 | 1.0 | 4.0 | 0.00 | 0.00 | 0.00 | 61 | 995.8 |
| 20260509144537 | 61 | 51 | 1.0 | 3.0 | 0.00 | 0.00 | 0.00 | 63 | 995.7 |
| 20260509143017 | 60 | 87 | 0.0 | 2.0 | 0.00 | 0.00 | 0.00 | 65 | 995.6 |
| 20260509141516 | 60 | 56 | 1.0 | 3.0 | 0.00 | 0.00 | 0.00 | 63 | 995.5 |
| 20260509140017 | 60 | 66 | 1.0 | 2.0 | 0.00 | 0.00 | 0.00 | 63 | 995.5 |
| 20260509134517 | 59 | 46 | 1.0 | 4.0 | 0.00 | 0.00 | 0.00 | 63 | 995.5 |
| 20260509133016 | 59 | 47 | 1.0 | 4.0 | 0.00 | 0.00 | 0.00 | 64 | 995.5 |
| 20260509131516 | 59 | 70 | 1.0 | 3.0 | 0.00 | 0.00 | 0.00 | 64 | 995.4 |
| 20260509130016 | 58 | 88 | 1.0 | 4.0 | 0.00 | 0.00 | 0.00 | 65 | 995.5 |
| 20260509124516 | 58 | 33 | 1.0 | 4.0 | 0.00 | 0.00 | 0.00 | 65 | 995.7 |
| 20260509123019 | 57 | 34 | 1.0 | 3.0 | 0.00 | 0.00 | 0.00 | 66 | 995.6 |
| 20260509121518 | 57 | 78 | 1.0 | 3.0 | 0.00 | 0.00 | 0.00 | 66 | 995.7 |
| 20260509120017 | 56 | 48 | 1.0 | 4.0 | 0.00 | 0.00 | 0.00 | 66 | 995.7 |
| 20260509114537 | 56 | 46 | 1.0 | 2.0 | 0.00 | 0.00 | 0.00 | 67 | 995.5 |
| 20260509113037 | 56 | 47 | 0.0 | 2.0 | 0.00 | 0.00 | 0.00 | 66 | 995.4 |
| 20260509111517 | 55 | 49 | 0.0 | 2.0 | 0.00 | 0.00 | 0.00 | 64 | 995.2 |
| 20260509110018 | 55 | 50 | 0.0 | 2.0 | 0.00 | 0.00 | 0.00 | 63 | 995.0 |
| 20260509104537 | 55 | 53 | 1.0 | 3.0 | 0.00 | 0.00 | 0.00 | 62 | 994.8 |
| 20260509103017 | 55 | 51 | 1.0 | 4.0 | 0.00 | 0.00 | 0.00 | 61 | 995.0 |
| 20260509101517 | 55 | 49 | 1.0 | 4.0 | 0.00 | 0.00 | 0.00 | 60 | 994.9 |
| 20260509100017 | 56 | 41 | 1.0 | 5.0 | 0.00 | 0.00 | 0.00 | 59 | 994.8 |
| 20260509094517 | 56 | 58 | 1.0 | 6.0 | 0.00 | 0.00 | 0.00 | 58 | 994.9 |
| 20260509093017 | 56 | 64 | 2.0 | 7.0 | 0.00 | 0.00 | 0.00 | 58 | 995.0 |
| 20260509091516 | 56 | 66 | 1.0 | 6.0 | 0.00 | 0.00 | 0.00 | 57 | 995.0 |
| 20260509090016 | 56 | 58 | 2.0 | 5.0 | 0.00 | 0.00 | 0.00 | 57 | 995.1 |
| 20260509084516 | 56 | 76 | 2.0 | 6.0 | 0.00 | 0.00 | 0.00 | 57 | 995.3 |
| 20260509083017 | 57 | 76 | 2.0 | 5.0 | 0.00 | 0.00 | 0.00 | 56 | 995.3 |
| 20260509081537 | 57 | 67 | 2.0 | 6.0 | 0.00 | 0.00 | 0.00 | 56 | 995.4 |
| 20260509080017 | 57 | 87 | 2.0 | 6.0 | 0.00 | 0.00 | 0.00 | 55 | 995.4 |
| 20260509074517 | 57 | 71 | 1.0 | 4.0 | 0.00 | 0.00 | 0.00 | 55 | 995.4 |
| 20260509073017 | 57 | 103 | 1.0 | 4.0 | 0.00 | 0.00 | 0.00 | 55 | 995.4 |
| 20260509071517 | 56 | 88 | 1.0 | 5.0 | 0.00 | 0.00 | 0.00 | 55 | 995.5 |
| 20260509070017 | 57 | 108 | 1.0 | 5.0 | 0.00 | 0.00 | 0.00 | 55 | 995.6 |
| 20260509064517 | 57 | 78 | 1.0 | 4.0 | 0.00 | 0.00 | 0.00 | 55 | 995.7 |
| 20260509063017 | 57 | 63 | 1.0 | 3.0 | 0.00 | 0.00 | 0.00 | 54 | 995.7 |
| 20260509061517 | 57 | 58 | 1.0 | 4.0 | 0.00 | 0.00 | 0.00 | 54 | 995.9 |
| 20260509060017 | 57 | 97 | 1.0 | 5.0 | 0.00 | 0.00 | 0.00 | 54 | 995.8 |
| 20260509054517 | 57 | 65 | 1.0 | 4.0 | 0.00 | 0.00 | 0.00 | 55 | 995.9 |
| 20260509053017 | 57 | 69 | 1.0 | 4.0 | 0.00 | 0.00 | 0.00 | 54 | 996.0 |
| 20260509051517 | 57 | 60 | 1.0 | 5.0 | 0.00 | 0.00 | 0.00 | 54 | 996.1 |
| 20260509050017 | 57 | 79 | 1.0 | 7.0 | 0.00 | 0.00 | 0.00 | 54 | 996.1 |
| 20260509044517 | 57 | 56 | 1.0 | 3.0 | 0.00 | 0.00 | 0.00 | 54 | 996.0 |
| 20260509043016 | 57 | 90 | 1.0 | 5.0 | 0.00 | 0.00 | 0.00 | 53 | 996.1 |
| 20260509041522 | 58 | 72 | 1.0 | 3.0 | 0.00 | 0.00 | 0.00 | 53 | 996.1 |
| 20260509040016 | 58 | 99 | 1.0 | 7.0 | 0.00 | 0.00 | 0.00 | 52 | 996.1 |
| 20260509034556 | 58 | 107 | 1.0 | 5.0 | 0.00 | 0.00 | 0.00 | 52 | 996.1 |
| 20260509033038 | 58 | 118 | 1.0 | 4.0 | 0.00 | 0.00 | 0.00 | 53 | 996.2 |
| 20260509031517 | 58 | 98 | 1.0 | 3.0 | 0.00 | 0.00 | 0.00 | 53 | 996.3 |
| 20260509030018 | 58 | 153 | 0.0 | 2.0 | 0.00 | 0.00 | 0.00 | 52 | 996.5 |
| 20260509024518 | 58 | 125 | 0.0 | 1.0 | 0.00 | 0.00 | 0.00 | 52 | 996.5 |
| 20260509023018 | 58 | 138 | 0.0 | 1.0 | 0.00 | 0.00 | 0.00 | 51 | 996.5 |
| 20260509021518 | 59 | 150 | 0.0 | 1.0 | 0.00 | 0.00 | 0.00 | 51 | 996.5 |
| 20260509020018 | 59 | 179 | 0.0 | 1.0 | 0.00 | 0.00 | 0.00 | 50 | 996.5 |
| 20260509014518 | 60 | 159 | 0.0 | 1.0 | 0.00 | 0.00 | 0.00 | 49 | 996.4 |
| 20260509013017 | 60 | 171 | 0.0 | 1.0 | 0.00 | 0.00 | 0.00 | 49 | 996.4 |
| 20260509011537 | 60 | 0.0 | 0.0 | 0.00 | 0.00 | 0.00 | 50 | 996.3 | |
| 20260509010018 | 61 | 306 | 0.0 | 1.0 | 0.00 | 0.00 | 0.00 | 49 | 996.1 |
| 20260509004517 | 61 | 0.0 | 0.0 | 0.00 | 0.00 | 0.00 | 48 | 996.0 | |
| 20260509003018 | 62 | 0.0 | 0.0 | 0.00 | 0.00 | 0.00 | 45 | 996.0 | |
| 20260509001517 | 63 | 0.0 | 0.0 | 0.00 | 0.00 | 0.00 | 43 | 995.9 | |
| 20260509000019 | 63 | 0.0 | 0.0 | 0.00 | 0.00 | 0.00 | 42 | 995.7 | |
| 20260508234518 | 64 | 0.0 | 0.0 | 0.00 | 0.00 | 0.00 | 40 | 995.6 | |
| 20260508233017 | 64 | 0.0 | 0.0 | 0.00 | 0.00 | 0.00 | 40 | 995.4 | |
| 20260508231537 | 64 | 0.0 | 0.0 | 0.00 | 0.00 | 0.00 | 40 | 995.2 | |
| 20260508230037 | 65 | 51 | 0.0 | 1.0 | 0.00 | 0.00 | 0.00 | 39 | 995.1 |
| 20260508224517 | 65 | 153 | 0.0 | 3.0 | 0.00 | 0.00 | 0.00 | 38 | 995.0 |